| time (UTC) | temp F | wind direction | speed MPH | gust MPH | rain 1hr in | rain 24hr in | rain mn in | humidity % | barometer mb |
| 20260905185605 | 91 | 313 | 1.0 | 10.0 | 0.00 | 0.40 | 0.00 | 72 | 1014.0 |
| 20260905185105 | 91 | 325 | 2.0 | 7.0 | 0.00 | 0.40 | 0.00 | 70 | 1013.9 |
| 20260905184605 | 91 | 325 | 5.0 | 12.0 | 0.00 | 0.40 | 0.00 | 70 | 1014.1 |
| 20260905183604 | 91 | 333 | 6.0 | 12.0 | 0.00 | 0.40 | 0.00 | 71 | 1014.2 |
| 20260905183105 | 91 | 309 | 5.0 | 13.0 | 0.00 | 0.40 | 0.00 | 71 | 1014.3 |
| 20260905182605 | 91 | 334 | 2.0 | 7.0 | 0.00 | 0.40 | 0.00 | 72 | 1014.3 |
| 20260905182104 | 91 | 333 | 2.0 | 8.0 | 0.00 | 0.40 | 0.00 | 72 | 1014.4 |
| 20260905181605 | 91 | 312 | 1.0 | 6.0 | 0.00 | 0.40 | 0.00 | 73 | 1014.4 |
| 20260905181105 | 90 | 311 | 4.0 | 8.0 | 0.00 | 0.40 | 0.00 | 73 | 1014.5 |
| 20260905180605 | 90 | 319 | 4.0 | 9.0 | 0.00 | 0.40 | 0.00 | 73 | 1014.5 |
| 20260905175605 | 90 | 296 | 0.0 | 7.0 | 0.00 | 0.40 | 0.00 | 74 | 1014.5 |
| 20260905175105 | 90 | 324 | 3.0 | 7.0 | 0.00 | 0.40 | 0.00 | 72 | 1014.6 |
| 20260905174605 | 89 | 321 | 2.0 | 7.0 | 0.00 | 0.40 | 0.00 | 72 | 1014.7 |
| 20260905174105 | 89 | 331 | 2.0 | 9.0 | 0.00 | 0.40 | 0.00 | 72 | 1014.7 |
| 20260905173604 | 90 | 320 | 2.0 | 8.0 | 0.00 | 0.40 | 0.00 | 71 | 1014.9 |
| 20260905172605 | 92 | 316 | 0.0 | 3.0 | 0.00 | 0.40 | 0.00 | 71 | 1015.0 |
| 20260905172105 | 92 | 157 | 1.0 | 6.0 | 0.00 | 0.40 | 0.00 | 70 | 1015.1 |
| 20260905171605 | 92 | 335 | 2.0 | 7.0 | 0.00 | 0.40 | 0.00 | 69 | 1015.1 |
| 20260905171104 | 92 | 342 | 0.0 | 5.0 | 0.00 | 0.40 | 0.00 | 73 | 1015.1 |
| 20260905170108 | 91 | 307 | 2.0 | 6.0 | 0.00 | 0.40 | 0.00 | 73 | 1015.2 |
| 20260905165605 | 91 | 296 | 0.0 | 2.0 | 0.00 | 0.40 | 0.00 | 74 | 1015.3 |
| 20260905165105 | 90 | 198 | 0.0 | 6.0 | 0.00 | 0.40 | 0.00 | 75 | 1015.4 |
| 20260905164604 | 89 | 299 | 1.0 | 3.0 | 0.00 | 0.40 | 0.00 | 77 | 1015.5 |
| 20260905164105 | 89 | 214 | 0.0 | 1.0 | 0.00 | 0.40 | 0.00 | 75 | 1015.6 |
| 20260905163605 | 89 | 243 | 0.0 | 1.0 | 0.00 | 0.40 | 0.00 | 74 | 1015.7 |
| 20260905163105 | 89 | 316 | 0.0 | 2.0 | 0.00 | 0.40 | 0.00 | 78 | 1015.8 |
| 20260905162604 | 89 | 320 | 0.0 | 1.0 | 0.00 | 0.40 | 0.00 | 76 | 1015.9 |
| 20260905162105 | 90 | 320 | 0.0 | 3.0 | 0.00 | 0.40 | 0.00 | 76 | 1016.0 |
| 20260905161605 | 90 | 336 | 0.0 | 1.0 | 0.00 | 0.40 | 0.00 | 77 | 1016.0 |
| 20260905161104 | 90 | 335 | 1.0 | 5.0 | 0.00 | 0.40 | 0.00 | 76 | 1016.0 |
| 20260905160605 | 89 | 60 | 0.0 | 0.0 | 0.00 | 0.40 | 0.00 | 77 | 1016.0 |
| 20260905160108 | 89 | 92 | 0.0 | 0.0 | 0.00 | 0.40 | 0.00 | 77 | 1016.0 |
| 20260905155604 | 89 | 300 | 0.0 | 0.0 | 0.00 | 0.40 | 0.00 | 78 | 1016.1 |
| 20260905155105 | 89 | 300 | 0.0 | 0.0 | 0.00 | 0.40 | 0.00 | 80 | 1016.2 |
| 20260905154604 | 89 | 322 | 0.0 | 3.0 | 0.00 | 0.40 | 0.00 | 77 | 1016.2 |
| 20260905154105 | 89 | 164 | 0.0 | 1.0 | 0.00 | 0.40 | 0.00 | 78 | 1016.2 |
| 20260905152604 | 88 | 335 | 0.0 | 3.0 | 0.00 | 0.40 | 0.00 | 81 | 1016.3 |
| 20260905152105 | 88 | 317 | 0.0 | 2.0 | 0.00 | 0.40 | 0.00 | 82 | 1016.4 |
| 20260905151105 | 87 | 313 | 0.0 | 2.0 | 0.00 | 0.40 | 0.00 | 83 | 1016.3 |
| 20260905150604 | 87 | 334 | 1.0 | 3.0 | 0.00 | 0.40 | 0.00 | 82 | 1016.3 |
| 20260905150108 | 87 | 327 | 0.0 | 1.0 | 0.00 | 0.40 | 0.00 | 84 | 1016.3 |
| 20260905145605 | 87 | 327 | 0.0 | 3.0 | 0.00 | 0.40 | 0.00 | 85 | 1016.3 |
| 20260905145104 | 87 | 319 | 1.0 | 3.0 | 0.00 | 0.40 | 0.00 | 84 | 1016.1 |
| 20260905144604 | 86 | 162 | 0.0 | 2.0 | 0.00 | 0.40 | 0.00 | 83 | 1016.1 |
| 20260905143605 | 86 | 334 | 1.0 | 2.0 | 0.00 | 0.40 | 0.00 | 85 | 1016.3 |
| 20260905143104 | 86 | 313 | 1.0 | 5.0 | 0.00 | 0.40 | 0.00 | 85 | 1016.2 |
| 20260905142605 | 85 | 144 | 1.0 | 3.0 | 0.00 | 0.40 | 0.00 | 86 | 1016.2 |
| 20260905142105 | 85 | 142 | 2.0 | 3.0 | 0.00 | 0.40 | 0.00 | 88 | 1016.3 |
| 20260905141605 | 84 | 173 | 1.0 | 3.0 | 0.00 | 0.40 | 0.00 | 89 | 1016.2 |
| 20260905141104 | 83 | 166 | 1.0 | 3.0 | 0.00 | 0.40 | 0.00 | 90 | 1016.3 |
| 20260905140604 | 82 | 171 | 2.0 | 5.0 | 0.00 | 0.40 | 0.00 | 91 | 1016.2 |
| 20260905140109 | 82 | 160 | 1.0 | 3.0 | 0.00 | 0.40 | 0.00 | 93 | 1016.3 |
| 20260905135604 | 81 | 160 | 1.0 | 2.0 | 0.00 | 0.40 | 0.00 | 94 | 1016.3 |
| 20260905135104 | 81 | 163 | 1.0 | 3.0 | 0.00 | 0.40 | 0.00 | 95 | 1016.3 |
| 20260905134605 | 80 | 166 | 1.0 | 3.0 | 0.00 | 0.40 | 0.00 | 95 | 1016.2 |
| 20260905134104 | 80 | 192 | 1.0 | 2.0 | 0.00 | 0.40 | 0.00 | 96 | 1016.2 |
| 20260905133605 | 79 | 203 | 0.0 | 2.0 | 0.00 | 0.40 | 0.00 | 96 | 1016.3 |
| 20260905133105 | 79 | 202 | 1.0 | 3.0 | 0.00 | 0.40 | 0.00 | 96 | 1016.2 |
| 20260905131604 | 78 | 203 | 1.0 | 2.0 | 0.00 | 0.40 | 0.00 | 96 | 1016.3 |
| 20260905131105 | 78 | 202 | 0.0 | 2.0 | 0.00 | 0.40 | 0.00 | 96 | 1016.2 |
| 20260905130604 | 78 | 232 | 0.0 | 1.0 | 0.00 | 0.40 | 0.00 | 96 | 1016.3 |
| 20260905125605 | 77 | 232 | 0.0 | 2.0 | 0.00 | 0.40 | 0.00 | 96 | 1016.3 |
| 20260905125105 | 77 | 241 | 0.0 | 2.0 | 0.00 | 0.40 | 0.00 | 96 | 1016.3 |
| 20260905124605 | 77 | 241 | 0.0 | 1.0 | 0.00 | 0.40 | 0.00 | 96 | 1016.3 |
| 20260905124104 | 77 | 241 | 0.0 | 1.0 | 0.00 | 0.40 | 0.00 | 96 | 1016.3 |
| 20260905123604 | 77 | 241 | 0.0 | 1.0 | 0.00 | 0.40 | 0.00 | 96 | 1016.4 |
| 20260905123105 | 77 | 241 | 0.0 | 1.0 | 0.00 | 0.40 | 0.00 | 96 | 1016.3 |
| 20260905122105 | 76 | 241 | 0.0 | 1.0 | 0.00 | 0.40 | 0.00 | 96 | 1016.2 |
| 20260905121605 | 76 | 241 | 0.0 | 0.0 | 0.00 | 0.40 | 0.00 | 96 | 1016.3 |
| 20260905121104 | 75 | 241 | 0.0 | 0.0 | 0.00 | 0.40 | 0.00 | 96 | 1016.2 |
| 20260905120605 | 75 | 241 | 0.0 | 0.0 | 0.00 | 0.40 | 0.00 | 96 | 1016.2 |
| 20260905120108 | 75 | 241 | 0.0 | 0.0 | 0.00 | 0.40 | 0.00 | 95 | 1016.1 |
| 20260905115604 | 75 | 241 | 0.0 | 0.0 | 0.00 | 0.40 | 0.00 | 95 | 1015.9 |
| 20260905115104 | 74 | 241 | 0.0 | 0.0 | 0.00 | 0.40 | 0.00 | 95 | 1015.7 |
| 20260905114605 | 74 | 241 | 0.0 | 0.0 | 0.00 | 0.40 | 0.00 | 95 | 1015.6 |
| 20260905113104 | 74 | 241 | 0.0 | 0.0 | 0.00 | 0.41 | 0.00 | 95 | 1015.6 |
| 20260905112104 | 74 | 241 | 0.0 | 0.0 | 0.00 | 0.41 | 0.00 | 95 | 1015.7 |
| 20260905111604 | 75 | 241 | 0.0 | 0.0 | 0.00 | 0.41 | 0.00 | 95 | 1015.6 |
| 20260905111104 | 74 | 241 | 0.0 | 0.0 | 0.00 | 0.41 | 0.00 | 95 | 1015.6 |
| 20260905110604 | 75 | 241 | 0.0 | 0.0 | 0.00 | 0.41 | 0.00 | 95 | 1015.6 |
| 20260905110108 | 75 | 241 | 0.0 | 0.0 | 0.00 | 0.41 | 0.00 | 95 | 1015.6 |
| 20260905105604 | 75 | 241 | 0.0 | 0.0 | 0.00 | 0.41 | 0.00 | 95 | 1015.6 |
| 20260905105104 | 75 | 241 | 0.0 | 0.0 | 0.00 | 0.41 | 0.00 | 95 | 1015.6 |
| 20260905104604 | 75 | 241 | 0.0 | 0.0 | 0.00 | 0.41 | 0.00 | 95 | 1015.5 |
| 20260905104104 | 75 | 241 | 0.0 | 0.0 | 0.00 | 0.41 | 0.00 | 95 | 1015.5 |
| 20260905103604 | 75 | 241 | 0.0 | 0.0 | 0.00 | 0.41 | 0.00 | 95 | 1015.4 |
| 20260905103104 | 75 | 241 | 0.0 | 0.0 | 0.00 | 0.41 | 0.00 | 95 | 1015.5 |
| 20260905102604 | 75 | 241 | 0.0 | 0.0 | 0.00 | 0.41 | 0.00 | 95 | 1015.4 |
| 20260905101604 | 75 | 241 | 0.0 | 0.0 | 0.00 | 0.41 | 0.00 | 95 | 1015.5 |
| 20260905101105 | 75 | 241 | 0.0 | 0.0 | 0.00 | 0.41 | 0.00 | 95 | 1015.5 |
| 20260905100604 | 75 | 241 | 0.0 | 0.0 | 0.00 | 0.41 | 0.00 | 95 | 1015.4 |
| 20260905095605 | 75 | 241 | 0.0 | 0.0 | 0.00 | 0.41 | 0.00 | 95 | 1015.3 |
| 20260905095104 | 75 | 241 | 0.0 | 0.0 | 0.00 | 0.41 | 0.00 | 95 | 1015.3 |
| 20260905093605 | 75 | 241 | 0.0 | 0.0 | 0.00 | 0.41 | 0.00 | 95 | 1015.3 |
| 20260905093104 | 75 | 241 | 0.0 | 0.0 | 0.00 | 0.41 | 0.00 | 95 | 1015.2 |
| 20260905092604 | 75 | 241 | 0.0 | 0.0 | 0.00 | 0.41 | 0.00 | 95 | 1015.3 |
| 20260905092103 | 75 | 241 | 0.0 | 0.0 | 0.00 | 0.41 | 0.00 | 95 | 1015.2 |
| 20260905091604 | 75 | 241 | 0.0 | 0.0 | 0.00 | 0.41 | 0.00 | 95 | 1015.1 |
| 20260905090604 | 75 | 241 | 0.0 | 0.0 | 0.00 | 0.41 | 0.00 | 95 | 1015.0 |
| 20260905090108 | 75 | 241 | 0.0 | 0.0 | 0.00 | 0.41 | 0.00 | 95 | 1015.0 |
| 20260905085104 | 75 | 241 | 0.0 | 0.0 | 0.00 | 0.41 | 0.00 | 95 | 1014.9 |
| 20260905084604 | 75 | 241 | 0.0 | 0.0 | 0.00 | 0.41 | 0.00 | 95 | 1014.9 |
| 20260905084104 | 75 | 241 | 0.0 | 0.0 | 0.00 | 0.41 | 0.00 | 95 | 1015.0 |
| 20260905083604 | 75 | 241 | 0.0 | 0.0 | 0.00 | 0.41 | 0.00 | 95 | 1015.0 |
| 20260905083104 | 75 | 241 | 0.0 | 0.0 | 0.00 | 0.41 | 0.00 | 95 | 1015.0 |
| 20260905082104 | 75 | 241 | 0.0 | 0.0 | 0.00 | 0.41 | 0.00 | 95 | 1015.1 |
| 20260905081104 | 75 | 241 | 0.0 | 0.0 | 0.00 | 0.41 | 0.00 | 95 | 1015.0 |
| 20260905080605 | 75 | 241 | 0.0 | 0.0 | 0.00 | 0.41 | 0.00 | 95 | 1015.1 |
| 20260905080107 | 75 | 241 | 0.0 | 0.0 | 0.00 | 0.41 | 0.00 | 95 | 1015.1 |
| 20260905075604 | 75 | 241 | 0.0 | 0.0 | 0.00 | 0.41 | 0.00 | 95 | 1015.0 |
| 20260905075105 | 75 | 241 | 0.0 | 0.0 | 0.00 | 0.41 | 0.00 | 95 | 1015.0 |
| 20260905074104 | 75 | 241 | 0.0 | 0.0 | 0.00 | 0.41 | 0.00 | 95 | 1015.1 |
| 20260905073604 | 75 | 241 | 0.0 | 0.0 | 0.00 | 0.41 | 0.00 | 95 | 1015.1 |
| 20260905073104 | 75 | 241 | 0.0 | 0.0 | 0.00 | 0.41 | 0.00 | 95 | 1015.1 |
| 20260905072604 | 75 | 241 | 0.0 | 0.0 | 0.00 | 0.41 | 0.00 | 95 | 1015.1 |
| 20260905072104 | 75 | 241 | 0.0 | 0.0 | 0.00 | 0.41 | 0.00 | 95 | 1015.1 |
| 20260905071603 | 75 | 241 | 0.0 | 0.0 | 0.00 | 0.41 | 0.00 | 95 | 1015.2 |
| 20260905070604 | 75 | 241 | 0.0 | 0.0 | 0.00 | 0.41 | 0.00 | 95 | 1015.2 |
| 20260905070108 | 75 | 241 | 0.0 | 0.0 | 0.00 | 0.41 | 0.00 | 95 | 1015.2 |
| 20260905065104 | 75 | 241 | 0.0 | 0.0 | 0.00 | 0.41 | 0.00 | 95 | 1015.3 |
| 20260905064604 | 75 | 241 | 0.0 | 0.0 | 0.00 | 0.41 | 0.00 | 95 | 1015.2 |
| 20260905064104 | 75 | 241 | 0.0 | 0.0 | 0.00 | 0.41 | 0.00 | 95 | 1015.2 |
| 20260905063603 | 75 | 241 | 0.0 | 0.0 | 0.00 | 0.41 | 0.00 | 95 | 1015.3 |
| 20260905063104 | 75 | 241 | 0.0 | 0.0 | 0.00 | 0.41 | 0.00 | 95 | 1015.3 |
| 20260905062604 | 75 | 241 | 0.0 | 0.0 | 0.00 | 0.41 | 0.00 | 95 | 1015.2 |
| 20260905062103 | 75 | 241 | 0.0 | 0.0 | 0.00 | 0.41 | 0.00 | 95 | 1015.3 |
| 20260905061604 | 75 | 241 | 0.0 | 0.0 | 0.00 | 0.41 | 0.00 | 95 | 1015.3 |
| 20260905060604 | 75 | 241 | 0.0 | 0.0 | 0.00 | 0.41 | 0.00 | 95 | 1015.5 |
| 20260905055604 | 76 | 241 | 0.0 | 0.0 | 0.00 | 0.41 | 0.00 | 95 | 1015.6 |
| 20260905055103 | 76 | 241 | 0.0 | 0.0 | 0.00 | 0.41 | 0.00 | 95 | 1015.7 |
| 20260905054604 | 76 | 241 | 0.0 | 0.0 | 0.00 | 0.41 | 0.00 | 95 | 1015.9 |
| 20260905053104 | 76 | 241 | 0.0 | 0.0 | 0.00 | 0.41 | 0.00 | 95 | 1016.0 |
| 20260905052604 | 76 | 241 | 0.0 | 0.0 | 0.00 | 0.41 | 0.00 | 95 | 1016.0 |
| 20260905052104 | 76 | 241 | 0.0 | 0.0 | 0.00 | 0.41 | 0.00 | 95 | 1016.0 |
| 20260905051604 | 76 | 241 | 0.0 | 0.0 | 0.00 | 0.41 | 0.00 | 95 | 1016.1 |
| 20260905051104 | 76 | 241 | 0.0 | 0.0 | 0.00 | 0.41 | 0.00 | 95 | 1016.1 |
| 20260905050606 | 76 | 241 | 0.0 | 9.0 | 0.00 | 0.41 | 0.00 | 95 | 1016.2 |
| 20260905050110 | 76 | 241 | 0.0 | 0.0 | 0.00 | 0.41 | 0.00 | 95 | 1016.3 |
| 20260905045606 | 76 | 241 | 0.0 | 0.0 | 0.00 | 0.41 | 0.00 | 95 | 1016.2 |
| 20260905045106 | 76 | 241 | 0.0 | 0.0 | 0.00 | 0.41 | 0.00 | 95 | 1016.3 |
| 20260905044605 | 76 | 241 | 0.0 | 0.0 | 0.00 | 0.41 | 0.00 | 95 | 1016.4 |
| 20260905044106 | 76 | 241 | 0.0 | 0.0 | 0.00 | 0.41 | 0.00 | 95 | 1016.5 |
| 20260905043607 | 76 | 241 | 0.0 | 0.0 | 0.00 | 0.41 | 0.00 | 95 | 1016.5 |
| 20260905043105 | 76 | 241 | 0.0 | 0.0 | 0.00 | 0.41 | 0.00 | 95 | 1016.4 |
| 20260905042106 | 76 | 241 | 0.0 | 0.0 | 0.00 | 0.41 | 0.00 | 94 | 1016.4 |
| 20260905041606 | 76 | 241 | 0.0 | 0.0 | 0.00 | 0.41 | 0.00 | 95 | 1016.4 |
| 20260905041106 | 76 | 241 | 0.0 | 0.0 | 0.00 | 0.41 | 0.00 | 95 | 1016.4 |
| 20260905040606 | 76 | 241 | 0.0 | 0.0 | 0.00 | 0.41 | 0.00 | 94 | 1016.4 |
| 20260905040110 | 76 | 241 | 0.0 | 0.0 | 0.00 | 0.41 | 0.00 | 94 | 1016.4 |
| 20260905035106 | 75 | 241 | 0.0 | 0.0 | 0.00 | 0.41 | 0.41 | 94 | 1016.4 |
| 20260905034605 | 75 | 241 | 0.0 | 0.0 | 0.00 | 0.41 | 0.41 | 94 | 1016.4 |
| 20260905034106 | 75 | 241 | 0.0 | 0.0 | 0.00 | 0.41 | 0.41 | 94 | 1016.4 |
| 20260905033606 | 75 | 241 | 0.0 | 0.0 | 0.00 | 0.41 | 0.41 | 94 | 1016.5 |
| 20260905033106 | 76 | 241 | 0.0 | 0.0 | 0.00 | 0.41 | 0.41 | 94 | 1016.6 |
| 20260905032606 | 76 | 241 | 0.0 | 0.0 | 0.00 | 0.41 | 0.41 | 94 | 1016.7 |
| 20260905031605 | 76 | 241 | 0.0 | 0.0 | 0.00 | 0.41 | 0.41 | 94 | 1016.7 |
| 20260905031106 | 76 | 241 | 0.0 | 0.0 | 0.00 | 0.41 | 0.41 | 94 | 1016.8 |
| 20260905030605 | 76 | 241 | 0.0 | 0.0 | 0.00 | 0.41 | 0.41 | 94 | 1016.8 |
| 20260905025606 | 75 | 241 | 0.0 | 0.0 | 0.00 | 0.41 | 0.41 | 94 | 1016.9 |
| 20260905025105 | 75 | 241 | 0.0 | 0.0 | 0.00 | 0.41 | 0.41 | 94 | 1016.9 |
| 20260905024105 | 75 | 241 | 0.0 | 0.0 | 0.00 | 0.41 | 0.41 | 94 | 1017.0 |
| 20260905023106 | 75 | 241 | 0.0 | 0.0 | 0.00 | 0.41 | 0.41 | 94 | 1016.9 |
| 20260905022605 | 75 | 241 | 0.0 | 0.0 | 0.00 | 0.41 | 0.41 | 94 | 1016.8 |
| 20260905021605 | 75 | 241 | 0.0 | 0.0 | 0.00 | 0.41 | 0.41 | 94 | 1016.7 |
| 20260905021105 | 75 | 241 | 0.0 | 0.0 | 0.00 | 0.41 | 0.41 | 94 | 1016.8 |
| 20260905020606 | 75 | 241 | 0.0 | 0.0 | 0.00 | 0.41 | 0.41 | 94 | 1016.7 |
| 20260905020110 | 75 | 241 | 0.0 | 0.0 | 0.00 | 0.41 | 0.41 | 94 | 1016.7 |
| 20260905015606 | 75 | 241 | 0.0 | 0.0 | 0.00 | 0.41 | 0.41 | 94 | 1016.7 |
| 20260905015106 | 75 | 241 | 0.0 | 0.0 | 0.00 | 0.41 | 0.41 | 94 | 1016.7 |
| 20260905014606 | 75 | 241 | 0.0 | 0.0 | 0.00 | 0.41 | 0.41 | 94 | 1016.6 |
| 20260905013106 | 75 | 241 | 0.0 | 0.0 | 0.00 | 0.41 | 0.41 | 94 | 1016.4 |
| 20260905012606 | 75 | 241 | 0.0 | 0.0 | 0.00 | 0.41 | 0.41 | 94 | 1016.3 |
| 20260905012105 | 75 | 241 | 0.0 | 0.0 | 0.00 | 0.42 | 0.41 | 94 | 1016.3 |
| 20260905011106 | 75 | 241 | 0.0 | 0.0 | 0.00 | 0.42 | 0.41 | 94 | 1016.2 |
| 20260905010110 | 75 | 241 | 0.0 | 0.0 | 0.00 | 0.43 | 0.41 | 94 | 1016.2 |
| 20260905005105 | 75 | 241 | 0.0 | 0.0 | 0.00 | 0.44 | 0.41 | 94 | 1016.1 |
| 20260905004606 | 75 | 241 | 0.0 | 0.0 | 0.00 | 0.45 | 0.41 | 93 | 1016.0 |
| 20260905004105 | 75 | 241 | 0.0 | 0.0 | 0.00 | 0.46 | 0.41 | 93 | 1016.0 |
| 20260905003105 | 76 | 241 | 0.0 | 0.0 | 0.00 | 0.48 | 0.41 | 93 | 1016.0 |
| 20260905002605 | 76 | 241 | 0.0 | 0.0 | 0.00 | 0.49 | 0.41 | 93 | 1016.0 |
| 20260905002106 | 75 | 241 | 0.0 | 0.0 | 0.00 | 0.50 | 0.41 | 93 | 1016.1 |
| 20260905001606 | 75 | 241 | 0.0 | 0.0 | 0.00 | 0.52 | 0.41 | 93 | 1016.1 |
| 20260905001105 | 76 | 241 | 0.0 | 0.0 | 0.00 | 0.53 | 0.41 | 93 | 1016.0 |
| 20260905000606 | 76 | 241 | 0.0 | 1.0 | 0.00 | 0.53 | 0.41 | 93 | 1016.2 |
| 20260905000109 | 76 | 241 | 0.0 | 2.0 | 0.01 | 0.53 | 0.41 | 93 | 1016.4 |
| 20260904235605 | 76 | 316 | 0.0 | 0.0 | 0.01 | 0.53 | 0.41 | 93 | 1016.1 |
| 20260904235106 | 76 | 316 | 0.0 | 0.0 | 0.02 | 0.53 | 0.41 | 92 | 1016.1 |
| 20260904234605 | 76 | 316 | 0.0 | 0.0 | 0.03 | 0.53 | 0.41 | 92 | 1016.2 |
| 20260904233606 | 76 | 315 | 1.0 | 3.0 | 0.06 | 0.54 | 0.41 | 92 | 1016.4 |
| 20260904233105 | 76 | 334 | 1.0 | 2.0 | 0.12 | 0.54 | 0.41 | 92 | 1016.2 |
| 20260904232605 | 76 | 310 | 0.0 | 0.0 | 0.18 | 0.54 | 0.41 | 92 | 1016.1 |
| 20260904232106 | 76 | 310 | 0.0 | 2.0 | 0.23 | 0.54 | 0.41 | 92 | 1016.0 |
| 20260904231605 | 76 | 292 | 0.0 | 1.0 | 0.29 | 0.55 | 0.41 | 92 | 1016.1 |
| 20260904231105 | 76 | 317 | 0.0 | 2.0 | 0.40 | 0.56 | 0.41 | 92 | 1016.2 |
| 20260904230605 | 76 | 324 | 0.0 | 0.0 | 0.40 | 0.57 | 0.41 | 92 | 1016.1 |
| 20260904230110 | 76 | 324 | 0.0 | 0.0 | 0.39 | 0.57 | 0.40 | 92 | 1016.0 |
| 20260904225105 | 76 | 324 | 0.0 | 0.0 | 0.38 | 0.57 | 0.39 | 92 | 1016.0 |
| 20260904224607 | 76 | 318 | 1.0 | 3.0 | 0.37 | 0.56 | 0.38 | 91 | 1015.9 |
| 20260904224105 | 76 | 327 | 1.0 | 2.0 | 0.36 | 0.55 | 0.37 | 90 | 1016.0 |
| 20260904223606 | 76 | 339 | 0.0 | 1.0 | 0.34 | 0.53 | 0.35 | 90 | 1016.2 |
| 20260904223105 | 77 | 27 | 0.0 | 1.0 | 0.28 | 0.47 | 0.29 | 90 | 1016.1 |
| 20260904221607 | 80 | 150 | 1.0 | 7.0 | 0.11 | 0.30 | 0.12 | 88 | 1015.6 |
| 20260904221105 | 81 | 196 | 0.0 | 1.0 | 0.00 | 0.19 | 0.01 | 88 | 1015.5 |
| 20260904220605 | 81 | 234 | 0.0 | 1.0 | 0.00 | 0.19 | 0.01 | 88 | 1015.3 |
| 20260904220109 | 81 | 335 | 0.0 | 1.0 | 0.00 | 0.19 | 0.01 | 88 | 1015.1 |
| 20260904215605 | 81 | 20 | 0.0 | 1.0 | 0.00 | 0.19 | 0.01 | 88 | 1015.0 |
| 20260904214606 | 81 | 322 | 1.0 | 7.0 | 0.00 | 0.19 | 0.01 | 88 | 1015.3 |
| 20260904214105 | 82 | 332 | 2.0 | 6.0 | 0.00 | 0.19 | 0.01 | 89 | 1015.4 |
| 20260904213605 | 82 | 331 | 2.0 | 8.0 | 0.00 | 0.19 | 0.01 | 87 | 1015.2 |
| 20260904213106 | 83 | 325 | 2.0 | 5.0 | 0.00 | 0.19 | 0.01 | 87 | 1015.4 |
| 20260904212606 | 85 | 317 | 2.0 | 6.0 | 0.00 | 0.19 | 0.01 | 85 | 1015.4 |
| 20260904212105 | 86 | 322 | 0.0 | 0.0 | 0.00 | 0.19 | 0.01 | 84 | 1015.2 |
| 20260904211605 | 86 | 322 | 0.0 | 2.0 | 0.00 | 0.19 | 0.01 | 83 | 1015.2 |
| 20260904210606 | 87 | 301 | 0.0 | 3.0 | 0.00 | 0.19 | 0.01 | 83 | 1014.9 |
| 20260904210109 | 87 | 329 | 1.0 | 3.0 | 0.00 | 0.19 | 0.01 | 82 | 1014.6 |
| 20260904205605 | 88 | 178 | 0.0 | 0.0 | 0.00 | 0.19 | 0.01 | 83 | 1014.6 |
| 20260904205105 | 87 | 178 | 0.0 | 0.0 | 0.00 | 0.19 | 0.01 | 82 | 1014.6 |
| 20260904204605 | 87 | 178 | 0.0 | 0.0 | 0.00 | 0.19 | 0.01 | 84 | 1014.6 |
| 20260904203605 | 87 | 178 | 0.0 | 0.0 | 0.00 | 0.19 | 0.01 | 85 | 1014.7 |
| 20260904203105 | 86 | 178 | 0.0 | 0.0 | 0.00 | 0.19 | 0.01 | 84 | 1014.9 |
| 20260904202605 | 86 | 178 | 0.0 | 0.0 | 0.00 | 0.19 | 0.01 | 85 | 1014.9 |
| 20260904202105 | 86 | 180 | 0.0 | 0.0 | 0.00 | 0.20 | 0.01 | 84 | 1014.9 |
| 20260904201605 | 86 | 180 | 0.0 | 0.0 | 0.00 | 0.24 | 0.01 | 83 | 1014.8 |
| 20260904201105 | 86 | 180 | 0.0 | 3.0 | 0.00 | 0.27 | 0.01 | 84 | 1014.7 |
| 20260904200109 | 86 | 168 | 0.0 | 2.0 | 0.00 | 0.28 | 0.01 | 83 | 1015.0 |
| 20260904195605 | 86 | 150 | 0.0 | 1.0 | 0.00 | 0.30 | 0.01 | 83 | 1015.0 |
| 20260904195105 | 86 | 156 | 0.0 | 1.0 | 0.00 | 0.30 | 0.01 | 83 | 1015.0 |
| 20260904194105 | 86 | 175 | 0.0 | 2.0 | 0.00 | 0.30 | 0.01 | 83 | 1015.3 |
| 20260904193605 | 86 | 167 | 0.0 | 1.0 | 0.00 | 0.30 | 0.01 | 83 | 1015.3 |
| 20260904192605 | 86 | 169 | 1.0 | 5.0 | 0.00 | 0.30 | 0.01 | 81 | 1015.2 |
| 20260904192105 | 87 | 158 | 1.0 | 7.0 | 0.00 | 0.30 | 0.01 | 81 | 1015.3 |
| 20260904191605 | 88 | 164 | 3.0 | 9.0 | 0.00 | 0.30 | 0.01 | 79 | 1015.4 |
| 20260904191105 | 89 | 138 | 3.0 | 8.0 | 0.00 | 0.30 | 0.01 | 77 | 1015.4 |
| 20260904190605 | 90 | 171 | 3.0 | 8.0 | 0.00 | 0.30 | 0.01 | 74 | 1015.5 |
| 20260904190109 | 91 | 150 | 1.0 | 6.0 | 0.00 | 0.30 | 0.01 | 72 | 1015.5 |